Regional Weather Roundup
Issued by NWS

Home | Current Version | Previous Version | Graphics & Text | Print | Product List | Glossary On
Versions: 1 2 3 4 5 6 7 8 9 10 11 12 13 14 15 16 17 18 19 20 21 22 23 24 25 26 27 28 29 30 31 32 33 34 35 36 37 38 39 40 41 42 43 44 45 46 47 48 49 50
000
ASUS43 KIND 030609
RWRIN

WEATHER ROUNDUP FOR INDIANA
NATIONAL WEATHER SERVICE INDIANAPOLIS IN
200 AM EDT TUE MAY 03 2016

NOTE: "FAIR" INDICATES FEW OR NO CLOUDS BELOW 12,000 FEET WITH NO
SIGNIFICANT WEATHER AND/OR OBSTRUCTIONS TO VISIBILITY.

* - STATION DOES NOT REPORT WEATHER SUCH AS PRECIPITATION OR FOG.

+ - STATION NOT QUALITY CONTROLLED BY THE NATIONAL WEATHER SERVICE.
    USE DATA WITH CAUTION...ESPECIALLY DEWPOINT AND RELATIVE
    HUMIDITY OBSERVATIONS.

INZ001>003-010>013-019-020-030700-
NORTHWEST INDIANA

CITY           SKY/WX    TMP DP  RH WIND       PRES   REMARKS
GARY /AIRPORT/ CLEAR     41  41 100 CALM      30.01S
KNOX *+        CLOUDY    46  39  76 CALM      29.99S
LA PORTE +     CLOUDY    48  45  87 CALM      29.99F
6HR MIN TEMP:  48; 6HR MAX TEMP:  50;

MICHIGAN CITY+ CLEAR     41  41 100 CALM      30.00S
MONTICELLO +   CLOUDY    48  44  84 N3        29.97F
6HR MIN TEMP:  48; 6HR MAX TEMP:  51;

RENSSELAER +   CLOUDY    48  43  81 CALM      29.99F
VALPARAISO     CLOUDY    47  41  80 CALM      29.99F
6HR MIN TEMP:  47; 6HR MAX TEMP:  48;


$$

LMZ046-743>745-030700-
SOUTHERN LAKE MICHIGAN

STATION/POSITION TIME  TEMP    WIND        PRES    WAVE
                       AIR SEA DIR/SP/G            HT
                 (UTC) (F)     (DEG/KT/KT) (MB)    (FT)
BURNS HARBOR     0500   46     300/  4/  5 1016.3F
MICHIGAN CITY    0500   45     260/  4/  5   N/A

$$

INZ004-005-014>016-021>024-030700-
NORTH CENTRAL INDIANA

CITY           SKY/WX    TMP DP  RH WIND       PRES   REMARKS
GOSHEN         CLOUDY    49  46  90 CALM      29.98S
6HR MIN TEMP:  48; 6HR MAX TEMP:  51;

LOGANSPORT +   DRIZZLE   48  48 100 N3        29.98F
PERU/GRISSOM   DRIZZLE   50  50 100 N6        29.96S
                                      6HR PCP:  0.06;

ROCHESTER +    CLOUDY    52  50  93 CALM      29.98F
SOUTH BEND     CLOUDY    47  42  83 CALM      29.99S
6HR MIN TEMP:  47; 6HR MAX TEMP:  50;

WARSAW +       DRIZZLE   46  46 100 CALM      29.98F

$$

INZ006>009-017-018-025>027-030700-
NORTHEAST INDIANA

CITY           SKY/WX    TMP DP  RH WIND       PRES   REMARKS
ANGOLA *+      CLOUDY    48  39  71 CALM      29.97F
AUBURN +       DRIZZLE   48  46  93 CALM      29.98F
FORT WAYNE     CLOUDY    50  47  89 N5        29.98S FOG
6HR MIN TEMP:  50; 6HR MAX TEMP:  51; 6HR PCP: TRACE;

HUNTINGTON +   DRIZZLE  N/A N/A N/A CALM      29.97F
                                      6HR PCP:  0.02;


$$

INZ028-029-035-036-043>045-051>053-030700-
WEST CENTRAL INDIANA

CITY           SKY/WX    TMP DP  RH WIND       PRES   REMARKS
CRAWFORDSVL +  CLOUDY    48  48 100 N3        29.97F
6HR MIN TEMP:  48; 6HR MAX TEMP:  51; 6HR PCP:  0.03;

GREENCASTLE +  CLOUDY    50  50 100 N6        29.96F
LAFAYETTE      CLOUDY    49  45  86 N3        29.98F
6HR MIN TEMP:  49; 6HR MAX TEMP:  52;

TERRE HAUTE    CLOUDY    52  49  89 NW5       29.97F
6HR MIN TEMP:  52; 6HR MAX TEMP:  54;


$$

INZ030>032-037>040-046>048-054>057-064-065-030700-
CENTRAL INDIANA

CITY           SKY/WX    TMP DP  RH WIND       PRES   REMARKS
CP ATTERBURY + CLOUDY    52  50  93 NW3       29.95F
FISHERS *+     CLOUDY    50  50 100 CALM      29.94F
FRANKFORT +      N/A     50  50 100 N6        29.98F FOG
6HR MIN TEMP:  50; 6HR MAX TEMP:  52; 6HR PCP:  0.01;

GREENWOOD *+   CLOUDY    52  50  93 N6        29.95F
INDIANAPOLIS   LGT RAIN  51  49  92 N8        29.93F FOG
6HR MIN TEMP:  51; 6HR MAX TEMP:  55; 6HR PCP:  0.11;

-EAGLE CREEK   CLOUDY    52  50  93 N6        29.94F FOG
6HR MIN TEMP:  52; 6HR MAX TEMP:  56; 6HR PCP:  0.10;

KOKOMO *+      CLOUDY    50  46  87 NE6       29.96F
6HR MIN TEMP:  50; 6HR MAX TEMP:  52; 6HR PCP:  0.02;

MARION +       CLOUDY    49  48  97 NE6       29.96F FOG
SHELBYVILLE    CLOUDY    56  52  86 N5        29.92F
6HR MIN TEMP:  56; 6HR MAX TEMP:  59;

ZIONSVILLE +   CLOUDY    49  49  97 N6        29.96S
6HR MIN TEMP:  49; 6HR MAX TEMP:  52; 6HR PCP:  0.05;


$$

INZ033-034-041-042-049-050-058-059-030700-
EAST CENTRAL INDIANA

CITY           SKY/WX    TMP DP  RH WIND       PRES   REMARKS
MUNCIE         CLOUDY    53  49  86 N6        29.94F
6HR MIN TEMP:  52; 6HR MAX TEMP:  54;


$$

INZ060-061-067>069-081>083-085>088-030700-
SOUTHWEST INDIANA

CITY           SKY/WX    TMP DP  RH WIND       PRES   REMARKS
EVANSVILLE     CLOUDY    55  49  80 W5        29.98F
6HR MIN TEMP:  55; 6HR MAX TEMP:  58;

HUNTINGBURG *+ CLOUDY    52  48  87 W3        29.97F
6HR MIN TEMP:  52; 6HR MAX TEMP:  57;

WASHINGTON +   CLOUDY    53  53 100 NW5       29.96F
6HR MIN TEMP:  53; 6HR MAX TEMP:  56;


$$

INZ062-063-066-070>080-084-089>092-030700-
SOUTH CENTRAL AND SOUTHEAST INDIANA

CITY           SKY/WX    TMP DP  RH WIND       PRES   REMARKS
BEDFORD +      CLOUDY    52  52 100 W3        29.95F
BLOOMINGTON    CLOUDY    52  49  89 NW6       29.95F
6HR MIN TEMP:  52; 6HR MAX TEMP:  56; 6HR PCP: TRACE;

MADISON *+     CLOUDY    54  50  87 NW5       29.95F
NORTH VERNON + CLOUDY   N/A N/A N/A CALM      29.94F
SEYMOUR +      CLOUDY    55  50  82 CALM      29.94F

$$




USA.gov is the U.S. government's official web portal to all federal, state and local government web resources and services.